Charles City, IA

7:35 PM CDT on October 17, 2017 (GMT -0500)
Charles City Municipal

Weather History for KCCY - January, 2014

Change the Weather History Date:

Wednesday, January 22, 2014

  Actual Average Record
Temperature  
Mean Temperature 2 °F -  
Max Temperature 12 °F 29 °F 55 °F (2002)
Min Temperature -7 °F 11 °F -19 °F (1991)
Degree Days  
Heating Degree Days 62    
Moisture  
Dew Point -3 °F    
Average Humidity 72    
Maximum Humidity 79    
Minimum Humidity 59    
Precipitation  
Precipitation 0.00 in - - ()
Sea Level Pressure  
Sea Level Pressure 30.09 in    
Wind  
Wind Speed 16 mph (WNW)    
Max Wind Speed 29 mph    
Max Gust Speed 40 mph    
Visibility 6 miles    
Events Snow    
Averages and records for this station are not official NWS values.
T = Trace of Precipitation, MM = Missing Value Source: NWS Daily Summary

Daily Weather History Graph

Daily Weather History Graph

Search for Another Location

Airport or City:

Trip Planner

Search our weather history database for the weather conditions in past years. The results will help you decide how hot, cold, wet, or windy it might be!

Date:

Astronomy

Jan. 22, 2014 Rise Set
Actual Time 7:34 AM CST 5:09 PM CST
Civil Twilight 7:03 AM CST 5:40 PM CST
Nautical Twilight 6:29 AM CST 6:15 PM CST
Astronomical Twilight 5:55 AM CST 6:49 PM CST
Moon 11:54 PM CST (1/22) 10:25 AM CST (1/22)
Length of Visible Light 10h 37m
Length of Day
9h 35m
Waning Gibbous, 65% of the Moon is Illuminated
Jan 22
Waning Gibbous
Jan 23
Last Quarter
Jan 30
New
Feb 6
First Quarter
Feb 14
Full

Hourly Weather History & Observations

Time (CST) Temp. Windchill Dew Point Humidity Pressure Visibility Wind Dir Wind Speed Gust Speed Precip Events Conditions
12:15 AM 5.0 °F -10.8 °F -0.4 °F 78% 30.01 in 10.0 mi South 11.5 mph - N/A   Overcast
12:35 AM 6.8 °F -9.3 °F -0.4 °F 72% 30.00 in 10.0 mi South 12.7 mph - N/A   Overcast
12:55 AM 6.8 °F -8.6 °F 1.4 °F 79% 30.00 in 10.0 mi South 11.5 mph - N/A   Overcast
1:15 AM 6.8 °F -7.8 °F 1.4 °F 79% 29.99 in 10.0 mi South 10.4 mph - N/A   Overcast
1:35 AM 6.8 °F -9.3 °F 1.4 °F 79% 29.97 in 10.0 mi South 12.7 mph - N/A   Overcast
1:55 AM 6.8 °F -6.9 °F 1.4 °F 79% 29.97 in 10.0 mi South 9.2 mph - N/A   Overcast
2:15 AM 8.6 °F -5.5 °F 1.4 °F 73% 29.97 in 10.0 mi South 10.4 mph - N/A Snow Light Snow
2:35 AM 8.6 °F -5.5 °F 1.4 °F 73% 29.95 in 5.0 mi South 10.4 mph - N/A   Haze
2:55 AM 8.6 °F -5.5 °F 1.4 °F 73% 29.95 in 4.0 mi South 10.4 mph - N/A Snow Light Snow
3:15 AM 8.6 °F -4.7 °F 3.2 °F 79% 29.94 in 9.0 mi SSW 9.2 mph - N/A   Mostly Cloudy
3:35 AM 8.6 °F -4.7 °F 3.2 °F 79% 29.94 in 10.0 mi SSW 9.2 mph - N/A   Overcast
3:55 AM 8.6 °F -4.7 °F 3.2 °F 79% 29.94 in 6.0 mi SSW 9.2 mph - N/A   Haze
4:15 AM 8.6 °F -3.7 °F 3.2 °F 79% 29.92 in 5.0 mi SSW 8.1 mph - N/A Snow Light Snow
4:35 AM 8.6 °F -3.7 °F 3.2 °F 79% 29.93 in 8.0 mi WSW 8.1 mph - N/A   Overcast
4:55 AM 10.4 °F -1.5 °F 5.0 °F 79% 29.93 in 10.0 mi West 8.1 mph - N/A Snow Light Snow
5:15 AM 10.4 °F -1.5 °F 5.0 °F 79% 29.93 in 7.0 mi West 8.1 mph - N/A Snow Light Snow
5:35 AM 10.4 °F -2.4 °F 5.0 °F 79% 29.93 in 7.0 mi WNW 9.2 mph - N/A Snow Light Snow
5:55 AM 12.2 °F -6.3 °F 5.0 °F 73% 29.93 in 9.0 mi NW 20.7 mph - N/A Snow Light Snow
6:15 AM 10.4 °F -7.7 °F 3.2 °F 73% 29.94 in 9.0 mi NW 18.4 mph - N/A   Overcast
6:35 AM 10.4 °F -6.0 °F 5.0 °F 79% 29.96 in 7.0 mi NW 15.0 mph - N/A Snow Light Snow
6:55 AM 8.6 °F -8.3 °F 3.2 °F 79% 29.96 in 4.0 mi NW 15.0 mph - N/A Snow Light Snow
7:15 AM 6.8 °F -10.0 °F 1.4 °F 79% 29.96 in 8.0 mi NW 13.8 mph - N/A   Overcast
7:35 AM 6.8 °F -10.0 °F -0.4 °F 72% 29.97 in 10.0 mi WNW 13.8 mph - N/A   Overcast
7:55 AM 6.8 °F -8.6 °F -0.4 °F 72% 29.97 in 10.0 mi WNW 11.5 mph - N/A   Overcast
8:15 AM 6.8 °F -9.3 °F -0.4 °F 72% 29.97 in 10.0 mi WNW 12.7 mph - N/A   Overcast
8:35 AM 6.8 °F -10.0 °F -0.4 °F 72% 29.98 in 10.0 mi WNW 13.8 mph - N/A   Overcast
8:55 AM 6.8 °F -11.8 °F -0.4 °F 72% 29.99 in 7.0 mi NW 17.3 mph - N/A Snow Light Snow
9:15 AM 6.8 °F -11.3 °F -0.4 °F 72% 29.98 in 7.0 mi NW 16.1 mph - N/A Snow Light Snow
9:35 AM 6.8 °F -12.4 °F 1.4 °F 79% 29.99 in 3.0 mi NW 18.4 mph 24.2 mph N/A Snow Light Snow
9:55 AM 8.6 °F -10.5 °F 1.4 °F 73% 29.99 in 2.0 mi NW 19.6 mph 25.3 mph N/A Snow Light Snow
10:15 AM 8.6 °F -10.0 °F 1.4 °F 73% 30.00 in 1.0 mi NW 18.4 mph 28.8 mph N/A Snow Light Snow
10:35 AM 10.4 °F -9.1 °F 3.2 °F 73% 30.00 in 1.8 mi NW 21.9 mph - N/A Snow Light Snow
10:55 AM 10.4 °F -8.6 °F 3.2 °F 73% 29.99 in 2.5 mi WNW 20.7 mph 27.6 mph N/A   Haze
11:15 AM 10.4 °F -8.6 °F 3.2 °F 73% 29.99 in 3.0 mi NW 20.7 mph 29.9 mph N/A   Haze
11:35 AM 12.2 °F -7.5 °F 3.2 °F 67% 29.99 in 4.0 mi NW 24.2 mph - N/A   Haze
11:55 AM 10.4 °F -11.4 °F 5.0 °F 79% 29.99 in 0.5 mi NW 28.8 mph - N/A Snow Light Snow
12:15 PM 10.4 °F -10.7 °F 3.2 °F 73% 29.99 in 1.2 mi NW 26.5 mph 36.8 mph N/A Snow Light Snow
12:35 PM 8.6 °F -12.7 °F 3.2 °F 79% 29.99 in 0.5 mi NNW 25.3 mph 34.5 mph N/A Snow Light Snow
12:55 PM 8.6 °F -12.7 °F 1.4 °F 73% 30.00 in 0.8 mi NW 25.3 mph 33.4 mph N/A Snow Light Snow
1:15 PM 8.6 °F -13.8 °F 1.4 °F 73% 30.00 in 0.8 mi NNW 28.8 mph - N/A Snow Light Snow
1:35 PM 6.8 °F -16.2 °F -0.4 °F 72% 30.02 in 0.5 mi NNW 28.8 mph 40.3 mph N/A Snow Light Snow
1:55 PM 6.8 °F -14.7 °F -2.2 °F 67% 30.03 in 2.0 mi NNW 24.2 mph 36.8 mph N/A Snow Light Snow
2:15 PM 5.0 °F -17.1 °F -0.4 °F 78% 30.04 in 0.5 mi NNW 24.2 mph 32.2 mph N/A Snow Light Snow
2:35 PM 6.8 °F -14.3 °F -4.0 °F 61% 30.05 in 1.8 mi NW 23.0 mph 31.1 mph N/A   Haze
2:55 PM 5.0 °F -17.5 °F -2.2 °F 72% 30.07 in 0.8 mi NW 25.3 mph 34.5 mph N/A   Haze
3:15 PM 5.0 °F -17.5 °F -4.0 °F 66% 30.08 in 1.2 mi NW 25.3 mph 32.2 mph N/A Snow Light Snow
3:35 PM 3.2 °F -20.7 °F -4.0 °F 72% 30.09 in 0.5 mi NW 27.6 mph 34.5 mph N/A Snow Light Snow
3:55 PM 3.2 °F -20.7 °F -5.8 °F 66% 30.11 in 1.8 mi NW 27.6 mph 36.8 mph N/A   Haze
4:15 PM 1.4 °F -23.2 °F -5.8 °F 72% 30.12 in 2.0 mi NW 27.6 mph 34.5 mph N/A   Haze
4:35 PM 1.4 °F -21.9 °F -7.6 °F 66% 30.14 in 6.0 mi NW 24.2 mph 32.2 mph N/A   Haze
4:55 PM 1.4 °F -22.7 °F -5.8 °F 72% 30.16 in 1.2 mi NW 26.5 mph 32.2 mph N/A   Haze
5:15 PM 1.4 °F -20.5 °F -5.8 °F 72% 30.18 in 1.8 mi NW 20.7 mph 29.9 mph N/A Snow Light Snow
5:30 PM -0.4 °F -23.3 °F -7.6 °F 72% 30.19 in 0.5 mi NW 21.9 mph 31.1 mph N/A Snow Light Snow
5:55 PM -0.4 °F -26.0 °F -9.4 °F 66% 30.21 in 2.5 mi NW 28.8 mph 34.5 mph N/A   Haze
6:15 PM -0.4 °F -25.6 °F -9.4 °F 66% 30.22 in 3.0 mi NW 27.6 mph 33.4 mph N/A   Haze
6:35 PM -0.4 °F -24.3 °F -7.6 °F 72% 30.24 in 1.8 mi NW 24.2 mph - N/A Snow Light Snow
6:55 PM -0.4 °F -25.2 °F -9.4 °F 66% 30.25 in 6.0 mi NNW 26.5 mph - N/A   Haze
7:15 PM -2.2 °F -27.1 °F -9.4 °F 71% 30.27 in 5.0 mi NNW 25.3 mph 32.2 mph N/A   Haze
7:35 PM -2.2 °F -25.2 °F -9.4 °F 71% 30.28 in 4.0 mi NNW 20.7 mph 31.1 mph N/A   Haze
7:55 PM -2.2 °F -24.1 °F -9.4 °F 71% 30.29 in 6.0 mi NNW 18.4 mph 25.3 mph N/A   Haze
8:10 PM -2.2 °F -22.9 °F -9.4 °F 71% 30.30 in - NW 16.1 mph 23.0 mph N/A   Overcast
8:35 PM -4.0 °F -27.6 °F -11.2 °F 71% 30.32 in 4.0 mi NW 20.7 mph - N/A   Haze
8:55 PM -4.0 °F -26.4 °F -13.0 °F 65% 30.33 in 10.0 mi NW 18.4 mph 25.3 mph N/A   Overcast
9:15 PM -4.0 °F -25.2 °F -13.0 °F 65% 30.35 in 10.0 mi NW 16.1 mph - N/A   Overcast
9:35 PM -5.8 °F -28.8 °F -14.8 °F 65% 30.35 in 10.0 mi NW 18.4 mph - N/A   Mostly Cloudy
9:55 PM -5.8 °F -28.2 °F -14.8 °F 65% 30.36 in 10.0 mi NW 17.3 mph 23.0 mph N/A   Scattered Clouds
10:15 PM -5.8 °F -29.4 °F -14.8 °F 65% 30.36 in 10.0 mi NW 19.6 mph - N/A   Partly Cloudy
10:35 PM -5.8 °F -28.2 °F -16.6 °F 60% 30.37 in 10.0 mi NW 17.3 mph 24.2 mph N/A   Partly Cloudy
10:55 PM -5.8 °F -29.4 °F -16.6 °F 60% 30.38 in 10.0 mi NW 19.6 mph - N/A   Scattered Clouds
11:15 PM -7.6 °F -31.1 °F -16.6 °F 65% 30.39 in 10.0 mi NW 18.4 mph - N/A   Partly Cloudy
11:35 PM -7.6 °F -30.5 °F -16.6 °F 65% 30.40 in 10.0 mi NW 17.3 mph - N/A   Clear
11:55 PM -7.6 °F -31.1 °F -18.4 °F 59% 30.41 in 10.0 mi NW 18.4 mph 24.2 mph N/A   Clear